TimeEDT,TemperatureF,Dew PointF,Humidity,Sea Level PressureIn,VisibilityMPH,Wind Direction,Wind SpeedMPH,Gust SpeedMPH,PrecipitationIn,Events,Conditions,WindDirDegrees,DateUTC
12:54 AM,41.0,21.9,47,29.98,10.0,West,8.1,-,N/A,,Clear,280,2014-03-21 04:54:00
1:54 AM,41.0,21.9,47,29.99,10.0,West,10.4,-,N/A,,Clear,280,2014-03-21 05:54:00
2:54 AM,39.9,23.0,51,29.99,10.0,West,8.1,-,N/A,,Clear,280,2014-03-21 06:54:00
3:54 AM,37.9,23.0,55,30.00,10.0,West,4.6,-,N/A,,Clear,260,2014-03-21 07:54:00
4:54 AM,37.0,21.9,54,30.00,10.0,WSW,6.9,-,N/A,,Clear,250,2014-03-21 08:54:00
5:54 AM,36.0,23.0,59,30.01,10.0,West,6.9,-,N/A,,Clear,260,2014-03-21 09:54:00
6:54 AM,36.0,23.0,59,30.03,10.0,West,6.9,-,N/A,,Clear,270,2014-03-21 10:54:00
7:54 AM,37.9,24.1,57,30.04,10.0,West,8.1,-,N/A,,Clear,280,2014-03-21 11:54:00
8:54 AM,42.1,21.9,45,30.05,10.0,WNW,13.8,-,N/A,,Clear,290,2014-03-21 12:54:00
9:54 AM,44.1,21.0,40,30.05,10.0,WNW,15.0,-,N/A,,Clear,290,2014-03-21 13:54:00
10:54 AM,46.0,21.9,39,30.06,10.0,West,15.0,23.0,N/A,,Clear,270,2014-03-21 14:54:00
11:54 AM,48.0,21.9,36,30.05,10.0,WNW,15.0,23.0,N/A,,Clear,300,2014-03-21 15:54:00
12:54 PM,51.1,24.1,35,30.04,10.0,WNW,11.5,19.6,N/A,,Clear,300,2014-03-21 16:54:00
1:54 PM,52.0,19.9,28,30.03,10.0,West,15.0,23.0,N/A,,Clear,270,2014-03-21 17:54:00
2:54 PM,53.1,21.0,29,30.03,10.0,NW,10.4,-,N/A,,Clear,310,2014-03-21 18:54:00
3:54 PM,54.0,19.0,25,30.02,10.0,West,16.1,-,N/A,,Clear,270,2014-03-21 19:54:00
4:54 PM,54.0,19.9,26,30.02,10.0,West,17.3,24.2,N/A,,Clear,280,2014-03-21 20:54:00
5:54 PM,54.0,19.0,25,30.02,10.0,West,8.1,-,N/A,,Clear,270,2014-03-21 21:54:00
6:54 PM,52.0,16.0,24,30.04,10.0,WNW,6.9,-,N/A,,Clear,290,2014-03-21 22:54:00
7:54 PM,50.0,17.1,27,30.06,10.0,SW,3.5,-,N/A,,Clear,230,2014-03-21 23:54:00
8:54 PM,48.9,15.1,26,30.07,10.0,West,4.6,-,N/A,,Clear,280,2014-03-22 00:54:00
9:54 PM,43.0,19.0,38,30.06,10.0,Calm,Calm,-,N/A,,Clear,0,2014-03-22 01:54:00
10:54 PM,39.0,19.9,46,30.06,10.0,Calm,Calm,-,N/A,,Clear,0,2014-03-22 02:54:00
11:54 PM,39.0,19.0,45,30.06,10.0,Calm,Calm,-,N/A,,Clear,0,2014-03-22 03:54:00